• In Latvia
  • List of Countries
  • For 7 days
  • Water Temperature
  • Satellite Maps
  • Weather Map
  • Weather Widgets
  • user-avatar
    Login

    Hourly Weather Ostrovok

    Today, 23 May, Wednesday

    Time Temperature Precipitation Wind Pressure Humidity
    00:00 +10°C° 0 mm 2 mps 745 mmHg 95%
    01:00 +9°C° 0 mm 2 mps 745 mmHg 96%
    02:00 +10°C° 0 mm 1 mps 745 mmHg 97%
    03:00 +10°C° 0 mm 1 mps 745 mmHg 96%
    04:00 +11°C° 0 mm 1 mps 745 mmHg 95%
    05:00 +10°C° 0 mm 2 mps 745 mmHg 94%
    06:00 +13°C° 0 mm 2 mps 745 mmHg 87%
    07:00 +14°C° 0 mm 2 mps 745 mmHg 80%
    08:00 +16°C° 0 mm 2 mps 745 mmHg 73%
    09:00 +17°C° 0 mm 2 mps 745 mmHg 68%
    10:00 +18°C° 0 mm 3 mps 745 mmHg 63%
    11:00 +19°C° 0 mm 3 mps 745 mmHg 57%
    12:00 +20°C° 0 mm 3 mps 745 mmHg 54%
    13:00 +20°C° 0 mm 3 mps 744 mmHg 51%
    14:00 +21°C° 0 mm 3 mps 744 mmHg 48%
    15:00 +21°C° 0 mm 2 mps 744 mmHg 51%
    16:00 +20°C° 0 mm 2 mps 744 mmHg 54%
    17:00 +21°C° 0 mm 1 mps 744 mmHg 57%
    18:00 +19°C° 0 mm 1 mps 744 mmHg 63%
    19:00 +16°C° 0 mm 1 mps 744 mmHg 68%
    20:00 +15°C° 0 mm 1 mps 744 mmHg 74%
    21:00 +14°C° 0 mm 1 mps 744 mmHg 77%
    22:00 +13°C° 0 mm 1 mps 744 mmHg 80%
    23:00 +12°C° 0 mm 1 mps 744 mmHg 84%

    Tomorrow, 24 May, Thursday

    Time Temperature Precipitation Wind Pressure Humidity
    00:00 +12°C° 0 mm 1 mps 744 mmHg 85%
    01:00 +11°C° 0 mm 0 mps 744 mmHg 86%
    02:00 +10°C° 0 mm 0 mps 744 mmHg 88%
    03:00 +12°C° 0 mm 1 mps 744 mmHg 86%
    04:00 +13°C° 0 mm 1 mps 744 mmHg 84%
    05:00 +13°C° 0 mm 1 mps 744 mmHg 83%
    06:00 +15°C° 0 mm 1 mps 745 mmHg 75%
    07:00 +18°C° 0 mm 1 mps 745 mmHg 67%
    08:00 +20°C° 0 mm 1 mps 745 mmHg 60%
    09:00 +20°C° 0 mm 2 mps 745 mmHg 55%
    10:00 +21°C° 0 mm 2 mps 745 mmHg 51%
    11:00 +23°C° 0 mm 2 mps 745 mmHg 46%
    12:00 +23°C° 0 mm 2 mps 745 mmHg 46%
    13:00 +24°C° 0 mm 2 mps 745 mmHg 45%
    14:00 +24°C° 0 mm 3 mps 745 mmHg 45%
    15:00 +22°C° 0 mm 3 mps 745 mmHg 50%
    16:00 +21°C° 0 mm 3 mps 745 mmHg 54%
    17:00 +21°C° 0 mm 3 mps 745 mmHg 59%
    18:00 +19°C° 0 mm 3 mps 745 mmHg 67%
    19:00 +17°C° 0 mm 3 mps 746 mmHg 74%
    20:00 +15°C° 0 mm 2 mps 746 mmHg 82%
    21:00 +14°C° 0 mm 2 mps 746 mmHg 81%
    22:00 +13°C° 0 mm 2 mps 747 mmHg 81%
    23:00 +12°C° 0 mm 2 mps 747 mmHg 80%

    Day after tomorrow, 25 May, Friday

    Time Temperature Precipitation Wind Pressure Humidity
    00:00 +10°C° 0 mm 2 mps 748 mmHg 78%
    01:00 +9°C° 0 mm 2 mps 748 mmHg 76%
    02:00 +7°C° 0 mm 2 mps 748 mmHg 74%
    03:00 +8°C° 0 mm 2 mps 749 mmHg 71%
    04:00 +8°C° 0 mm 2 mps 749 mmHg 68%
    05:00 +8°C° 0 mm 2 mps 750 mmHg 66%
    06:00 +10°C° 0 mm 2 mps 750 mmHg 58%
    07:00 +12°C° 0 mm 3 mps 750 mmHg 51%
    08:00 +14°C° 0 mm 3 mps 751 mmHg 43%
    09:00 +16°C° 0 mm 3 mps 751 mmHg 40%
    10:00 +17°C° 0 mm 3 mps 751 mmHg 37%
    11:00 +18°C° 0 mm 3 mps 751 mmHg 35%
    12:00 +18°C° 0 mm 3 mps 751 mmHg 34%
    13:00 +19°C° 0 mm 3 mps 751 mmHg 33%
    14:00 +20°C° 0 mm 2 mps 751 mmHg 33%
    15:00 +19°C° 0 mm 2 mps 751 mmHg 35%
    16:00 +19°C° 0 mm 2 mps 751 mmHg 37%
    17:00 +19°C° 0 mm 2 mps 751 mmHg 39%
    18:00 +18°C° 0 mm 1 mps 751 mmHg 46%
    19:00 +15°C° 0 mm 1 mps 751 mmHg 54%
    20:00 +13°C° 0 mm 1 mps 751 mmHg 62%
    21:00 +12°C° 0 mm 1 mps 751 mmHg 63%
    22:00 +11°C° 0 mm 1 mps 752 mmHg 65%
    23:00 +10°C° 0 mm 1 mps 752 mmHg 66%

    26 May, Saturday

    Time Temperature Precipitation Wind Pressure Humidity
    00:00 +10°C° 0 mm 1 mps 752 mmHg 67%
    01:00 +10°C° 0 mm 1 mps 753 mmHg 67%
    02:00 +8°C° 0 mm 2 mps 753 mmHg 68%
    03:00 +9°C° 0 mm 2 mps 753 mmHg 67%
    04:00 +9°C° 0 mm 2 mps 753 mmHg 67%
    05:00 +10°C° 0 mm 2 mps 754 mmHg 67%
    06:00 +13°C° 0 mm 2 mps 754 mmHg 60%
    07:00 +16°C° 0 mm 2 mps 754 mmHg 53%
    08:00 +18°C° 0 mm 2 mps 754 mmHg 46%
    09:00 +19°C° 0 mm 2 mps 754 mmHg 42%
    10:00 +20°C° 0 mm 2 mps 754 mmHg 39%
    11:00 +23°C° 0 mm 2 mps 754 mmHg 35%
    12:00 +23°C° 0 mm 2 mps 753 mmHg 35%
    13:00 +24°C° 0 mm 3 mps 753 mmHg 35%
    14:00 +24°C° 0 mm 3 mps 753 mmHg 35%
    15:00 +24°C° 0 mm 3 mps 752 mmHg 37%
    16:00 +22°C° 0 mm 3 mps 752 mmHg 40%
    17:00 +23°C° 0 mm 2 mps 751 mmHg 43%
    18:00 +20°C° 0 mm 2 mps 751 mmHg 51%
    19:00 +18°C° 0 mm 2 mps 751 mmHg 60%
    20:00 +16°C° 0 mm 2 mps 751 mmHg 68%
    21:00 +15°C° 0 mm 2 mps 751 mmHg 71%
    22:00 +14°C° 0 mm 2 mps 751 mmHg 73%
    23:00 +13°C° 0 mm 2 mps 751 mmHg 75%

    27 May, Sunday

    Time Temperature Precipitation Wind Pressure Humidity
    00:00 +12°C° 0 mm 3 mps 751 mmHg 74%
    01:00 +12°C° 0 mm 3 mps 751 mmHg 73%
    02:00 +12°C° 0 mm 3 mps 751 mmHg 73%
    03:00 +12°C° 0 mm 3 mps 751 mmHg 73%
    04:00 +13°C° 0 mm 3 mps 750 mmHg 73%
    05:00 +13°C° 0 mm 4 mps 750 mmHg 73%
    06:00 +15°C° 0 mm 4 mps 750 mmHg 68%
    07:00 +17°C° 0 mm 4 mps 750 mmHg 63%
    08:00 +19°C° 0 mm 4 mps 750 mmHg 57%
    09:00 +20°C° 0 mm 4 mps 749 mmHg 54%
    10:00 +22°C° 0 mm 4 mps 749 mmHg 50%
    11:00 +23°C° 0 mm 4 mps 749 mmHg 46%
    12:00 +23°C° 0 mm 4 mps 749 mmHg 47%
    13:00 +23°C° 0 mm 4 mps 749 mmHg 48%
    14:00 +24°C° 0 mm 3 mps 748 mmHg 48%
    15:00 +24°C° 0 mm 3 mps 748 mmHg 49%
    16:00 +22°C° 0 mm 3 mps 748 mmHg 50%
    17:00 +22°C° 0 mm 3 mps 748 mmHg 51%
    18:00 +20°C° 0 mm 3 mps 748 mmHg 54%
    19:00 +18°C° 0 mm 2 mps 749 mmHg 57%
    20:00 +16°C° 0 mm 2 mps 749 mmHg 60%
    21:00 +15°C° 0 mm 2 mps 749 mmHg 62%
    22:00 +13°C° 0 mm 2 mps 750 mmHg 64%
    23:00 +12°C° 0 mm 2 mps 750 mmHg 66%

    28 May, Monday

    Time Temperature Precipitation Wind Pressure Humidity
    00:00 +11°C° 0 mm 1 mps 750 mmHg 68%
    01:00 +10°C° 0 mm 1 mps 750 mmHg 71%
    02:00 +9°C° 0 mm 1 mps 751 mmHg 74%
    03:00 +10°C° 0 mm 1 mps 751 mmHg 71%
    04:00 +10°C° 0 mm 1 mps 751 mmHg 69%
    05:00 +11°C° 0 mm 1 mps 751 mmHg 66%
    06:00 +13°C° 0 mm 1 mps 751 mmHg 58%
    07:00 +16°C° 0 mm 1 mps 751 mmHg 49%
    08:00 +19°C° 0 mm 1 mps 751 mmHg 41%
    09:00 +20°C° 0 mm 1 mps 751 mmHg 38%
    10:00 +22°C° 0 mm 1 mps 751 mmHg 36%
    11:00 +23°C° 0 mm 1 mps 751 mmHg 33%
    12:00 +24°C° 0 mm 1 mps 751 mmHg 33%
    13:00 +24°C° 0 mm 1 mps 751 mmHg 32%
    14:00 +25°C° 0 mm 1 mps 750 mmHg 31%
    15:00 +24°C° 0 mm 1 mps 750 mmHg 33%
    16:00 +24°C° 0 mm 1 mps 750 mmHg 35%
    17:00 +23°C° 0 mm 2 mps 749 mmHg 37%
    18:00 +21°C° 0 mm 1 mps 749 mmHg 45%
    19:00 +19°C° 0 mm 1 mps 749 mmHg 53%
    20:00 +16°C° 0 mm 1 mps 749 mmHg 60%
    21:00 +15°C° 0 mm 1 mps 749 mmHg 62%
    22:00 +14°C° 0 mm 1 mps 749 mmHg 63%
    23:00 +13°C° 0 mm 1 mps 749 mmHg 64%
    Show more